Location: Dover
(39.1580°N, 75.5250°W)
Time: 15:12:38
(UTC-04:00)

Daily predictions for brighter satellites

Satellite Brightness Start Highest point End
(mag) Time Altitude Azimuth Time Altitude Azimuth Time Altitude Azimuth
ATLAS 2A CENTAUR R/B 4.5 20:34:19 10° WSW 20:41:10 44° S 21:05:20 10° ESE
Cosmos 2237 Rocket 3.5 20:53:03 10° NW 20:58:14 39° WSW 21:03:25 10° S
Helios 1A 3.2 20:56:22 10° SSE 21:00:24 56° ENE 21:04:29 10° N
Cosmos 1356 Rocket 3.8 21:01:21 10° SSE 21:05:24 45° E 21:09:31 10° NNE
ERS-1 Rocket 3.9 21:02:43 10° SE 21:07:12 34° ENE 21:11:43 10° N
Cosmos 1242 Rocket 3.2 21:04:31 10° N 21:08:04 41° ENE 21:11:35 10° SSE
Cosmos 1184 Rocket 4.0 21:04:58 10° SSW 21:08:13 47° WNW 21:11:30 10° N
Cosmos 1850 Rocket 4.2 21:04:03 10° SSW 21:09:13 78° WNW 21:14:27 10° NNE
Cosmos 1674 2.8 21:06:30 10° S 21:10:09 51° E 21:13:48 10° NNE
ARGOS 4.5 21:05:53 10° ESE 21:10:09 24° ENE 21:14:25 10° NNE
CZ-4B DEB 3.0 21:07:26 10° SSE 21:10:17 46° ENE 21:13:09 10° N
Cosmos 1867 3.8 21:07:02 10° SW 21:12:28 78° WNW 21:17:57 10° NNE
RESURS DK-1 3.4 21:11:15 10° N 21:15:01 32° ENE 21:18:42 10° ESE
SJ-11-01 4.3 21:10:55 10° SSE 21:15:40 88° ENE 21:20:27 10° NNW
SAR-Lupe-1 4.4 21:14:24 10° SSE 21:17:52 49° ENE 21:21:22 10° N
Cosmos 1340 Rocket 4.1 21:17:03 10° SSW 21:20:55 45° WNW 21:24:51 10° N
Milstar 3 Cent rocket 4.1 21:16:55 10° WSW 21:22:35 30° S 21:31:39 11° SE
SL-16 R/B 2.7 21:19:20 10° NNW 21:24:54 58° WSW 21:30:25 10° S
Cosmos 371 Rocket 4.4 21:20:46 10° N 21:24:59 29° ENE 21:28:43 12° ESE
Resurs 01 Rocket 3.8 21:22:02 10° SSW 21:25:38 24° W 21:29:15 10° NW
Cosmos 1939 Rocket 3.3 21:23:47 10° S 21:27:45 62° W 21:31:48 10° NNW
Cosmos 1459 Rocket 4.0 21:21:56 10° N 21:28:14 70° E 21:34:21 10° SSE
Cosmos 1908 3.2 21:24:34 10° N 21:28:27 84° E 21:32:17 10° S
KORONAS-FOTON 3.7 21:30:17 10° S 21:34:03 70° E 21:37:50 10° NNE
CZ-3B R/B 3.7 21:32:57 10° SW 21:35:43 86° SE 21:44:33 10° NE
Cosmos 2100 Rocket 4.1 21:33:27 10° N 21:39:50 88° W 21:46:11 10° S
H-2A R/B 3.3 21:36:46 14° ESE 21:40:34 29° ENE 21:45:11 10° N
Cosmos 1076 Rocket 3.9 21:37:53 10° SSW 21:42:13 65° W 21:46:34 10° N
ERBS 3.2 21:39:45 10° NNW 21:42:58 39° NE 21:45:11 17° ESE
GPS 2-05 Rocket1 3.3 21:40:52 10° SW 21:43:41 32° S 21:45:05 21° ESE
Cosmos 2173 Rocket 4.0 21:40:10 10° N 21:46:22 85° W 21:52:37 10° S
Cosmos 2123 Rocket 4.1 21:41:49 10° SSE 21:47:47 55° E 21:53:48 10° NNE
Lacrosse 5 1.9 21:43:08 10° NW 21:48:13 82° NE 21:51:53 19° SE
SPOT 5 3.4 21:44:58 17° SE 21:48:30 45° ENE 21:53:23 10° N
SL-08 RB Rocket 4.4 21:47:43 18° SE 21:50:41 40° ENE 21:55:01 10° N
NOAA 11 4.2 21:47:25 13° SSE 21:52:18 82° ENE 21:57:46 10° NNW
Cosmos 2151 4.1 21:51:17 20° SE 21:53:08 27° E 21:56:45 10° NNE
Cosmos 2061 Rocket 4.1 21:46:44 10° N 21:53:10 83° W 21:59:35 10° S
Cosmos 1408 Rocket 3.6 21:50:31 10° S 21:54:49 77° W 21:59:10 10° N
Abrixas rocket 2.8 21:52:14 10° NW 21:55:25 50° NNE 21:57:18 21° E
YAOGAN 6 3.9 21:52:37 10° SSW 21:56:02 38° W 21:59:31 10° NNW
MetOp-B 4.1 21:53:17 16° SSE 21:57:40 79° ENE 22:03:02 10° N
Cosmos 2221 4.3 21:55:54 10° NNW 21:59:47 31° W 22:03:39 10° SSW
Cosmos 1626 3.4 22:03:26 22° ESE 22:03:59 23° E 22:06:57 10° NE
Cosmos 1356 4.2 22:05:04 29° SE 22:05:55 34° E 22:09:07 10° NNE
Cosmos 1814 Rocket 4.0 22:02:51 10° NNW 22:08:13 80° ENE 22:11:34 23° SSE
Cosmos 1726 2.1 22:04:56 10° N 22:08:37 78° W 22:10:46 23° S
Meteor 1-11 4.5 22:06:42 18° SSE 22:10:48 52° E 22:16:26 10° NNE
Cosmos 1725 Rocket 4.0 22:05:28 10° N 22:11:43 76° E 22:16:09 20° SSE
Terra 3.1 22:11:39 20° ESE 22:13:39 27° ENE 22:17:37 10° NNE
Cosmos 1763 Rocket 3.4 22:08:36 10° NNW 22:13:42 69° ENE 22:16:28 27° SSE
Cosmos 841 Rocket 3.8 22:08:45 10° N 22:13:54 54° ENE 22:16:35 27° SE
Cosmos 1500 Rocket 3.6 22:13:37 24° SSE 22:16:09 61° E 22:20:33 10° NNE
Cosmos 332 Rocket 4.0 22:11:43 10° NNW 22:16:37 70° WSW 22:19:41 23° S
Cosmos 2263 Rocket 2.1 22:11:23 10° S 22:16:51 64° ESE 22:22:23 10° NNE
Cosmos 1486 Rocket 4.0 22:11:54 10° SSW 22:17:10 86° ESE 22:22:29 10° NNE
Tiangong 1 1.3 22:14:53 10° WNW 22:17:38 53° NNE 22:18:28 36° ENE
Abrixas 3.1 22:19:18 10° WSW 22:21:56 49° NNW 22:24:35 10° NE
Cosmos 1300 2.9 22:20:37 10° NNW 22:24:25 65° W 22:26:18 28° S
CARTOSAT-1 4.5 22:26:14 28° ESE 22:27:31 34° ENE 22:31:25 10° N
Meteor 1-27 4.3 22:22:29 10° N 22:28:15 64° ENE 22:31:05 30° SSE
DMSP B5D2-2 4.2 22:24:01 10° NNE 22:29:08 54° E 22:31:32 30° SSE
USA 234 3.1 22:27:47 10° NE 22:34:21 76° SE 22:40:52 10° SW
SPOT 1/Viking Rocket 3.5 22:33:04 30° SSE 22:35:43 86° WSW 22:40:54 10° NNW
Cosmos 1328 Rocket 4.2 22:33:35 10° NNW 22:37:47 50° W 22:40:04 24° SSW
Cosmos 1151 Rocket 2.9 22:33:36 10° N 22:38:01 84° E 22:39:31 41° SSE
Cosmos 1515 Rocket 3.9 22:41:57 10° NNW 22:46:12 58° W 22:47:59 32° SSW
CZ-4C R/B 2.6 22:46:16 34° ESE 22:46:28 35° ESE 22:51:33 10° NE
H-2A R/B 2.6 22:47:34 38° E 22:48:20 42° ENE 22:52:21 10° N
EO 1 Delta rocket 4.3 22:47:12 27° SSW 22:49:33 54° W 22:54:07 10° NNW
Cosmos 1844 Rocket 3.9 22:50:05 24° E 22:50:05 24° E 22:54:10 10° NE
Delta 2 Rocket 4.1 22:44:11 10° WSW 22:49:50 61° S 22:52:25 32° ESE
ARGOS 4.1 22:46:39 19° SSW 22:50:07 43° W 22:55:15 10° NNW
Cosmos 2058 3.1 22:50:48 35° SSW 22:52:27 69° W 22:56:40 10° N
RESURS DK-1 4.4 22:49:49 10° WNW 22:52:51 20° WSW 22:54:38 15° SW
Cosmos 1455 2.2 22:53:24 10° N 22:57:13 60° E 22:57:20 60° E
Meteor 2-12 Rocket 4.4 22:54:54 10° N 23:00:59 84° W 23:03:35 37° S
Cosmos 2233 Rocket 4.1 22:54:56 10° NNW 23:01:06 71° W 23:04:08 31° S
Cosmos 1503 Rocket 4.1 23:00:28 23° SSW 23:03:42 71° WNW 23:08:53 10° NNE
Cosmos 1943 3.8 23:00:04 10° NNW 23:05:30 49° WSW 23:07:41 32° SSW
Cosmos 540 Rocket 3.4 23:02:07 10° NNW 23:07:17 78° ENE 23:08:29 53° SE
CZ-4B R/B 3.8 23:04:02 10° NNE 23:09:08 49° E 23:09:44 47° ESE
SME Rocket 3.9 23:11:22 35° E 23:11:44 36° ENE 23:16:02 10° N
Cosmos 968 Rocket 3.8 23:12:33 44° ESE 23:12:44 44° ESE 23:17:43 10° NNE
H-2A R/B 3.3 23:17:23 24° SW 23:19:48 35° W 23:24:45 10° NNW
CZ-2C R/B 4.1 23:18:38 10° NE 23:22:07 21° E 23:22:07 21° E
Cosmos 1869 3.5 23:22:04 10° N 23:25:35 60° NE 23:25:35 60° NE
Sich 1 2.9 23:28:52 74° ENE 23:28:52 74° ENE 23:32:57 10° N
Lacrosse 5 3.9 23:27:54 10° W 23:30:33 14° WSW 23:31:05 14° SW
Cosmos 1400 Rocket 4.0 23:38:32 35° ENE 23:38:32 35° ENE 23:41:27 10° NNE
Cosmos 1513 Rocket 4.3 23:32:34 10° N 23:38:48 86° E 23:40:12 56° SSE
Cosmos 1626 4.4 23:38:04 17° W 23:39:16 19° WNW 23:42:01 10° NNW
CZ-4C R/B 3.6 23:40:17 74° NE 23:40:17 74° NE 23:44:32 10° N
Cosmos 292 Rocket 4.3 23:37:48 10° N 23:42:23 46° ENE 23:42:36 45° ENE
Cosmos 1707 Rocket 3.8 23:43:52 10° NNW 23:48:18 60° W 23:48:19 60° W
deb Chang Zheng 4 4.5 23:44:15 10° N 23:48:25 43° WNW 23:49:17 38° WSW
Cosmos 2278 Rocket 3.3 23:51:08 30° E 23:51:08 30° E 23:55:13 10° NE
Terra 3.1 23:50:32 29° WSW 23:51:15 30° W 23:55:27 10° NW
ALOS 2 3.9 23:52:39 30° ENE 23:52:39 30° ENE 23:56:19 10° N
